This demonstration page uses our WeatherBlox Daily Observations layout. Learn more.

Left ArrowRight Arrow

Hourly Observations for November 15, 2018

Temp ( °F °C ) Dew Point ( °F °C ) Humidity (%) Winds ( mph kmh ) Pressure ( in mb ) Visibility ( mi km ) Precip ( " mm )
12:53 am 00:53 Clear 36 2.2 28 -2.2 73 73 SW 13 20 30.07 1018 10 16 N/A
1:53 am 01:53 Clear 34 1.1 27 -2.8 76 76 SSW 13 20 30.09 1019 10 16 N/A
2:53 am 02:53 Partly Cloudy 36 2.2 28 -2.2 73 73 SW 13 20 30.12 1020 10 16 N/A
3:53 am 03:53 Clear 33 0.6 27 -2.8 78 78 SW 12 19 30.14 1021 10 16 N/A
4:53 am 04:53 Clear 32 undefined 26 -3.3 79 79 SW 10 17 30.15 1021 10 16 N/A
5:53 am 05:53 Clear 33 0.6 26 -3.3 75 75 SSW 9 15 30.16 1021 10 16 N/A
6:53 am 06:53 Mostly Clear 34 1.1 26 -3.3 73 73 SSW 14 22 30.17 1022 10 16 N/A
7:53 am 07:53 Sunny 35 1.7 27 -2.8 72 72 SW 14 22 30.18 1022 10 16 N/A
8:53 am 08:53 Sunny 39 3.9 27 -2.8 62 62 SW 15 24 30.19 1022 10 16 N/A
9:53 am 09:53 Sunny 43 6.1 28 -2.2 56 56 SW 16 26 30.19 1022 10 16 N/A
10:53 am 10:53 Sunny 45 7.2 28 -2.2 52 52 WSW 15 24 30.18 1022 10 16 N/A
11:53 am 11:53 Sunny 49 9.4 27 -2.8 43 43 W 9 15 30.15 1021 10 16 N/A
12:53 pm 12:53 Sunny 51 10.6 26 -3.3 38 38 NW 12 19 30.12 1020 10 16 N/A
1:53 pm 13:53 Sunny 52 11.1 26 -3.3 37 37 WNW 8 13 30.09 1019 10 16 N/A
2:53 pm 14:53 Sunny 51 10.6 26 -3.3 38 38 WNW 9 15 30.06 1018 10 16 N/A
3:53 pm 15:53 Mostly Cloudy 49 9.4 26 -3.3 41 41 SW 9 15 30.06 1018 10 16 N/A
4:53 pm 16:53 Cloudy 45 7.2 27 -2.8 49 49 ENE 5 7 30.04 1017 10 16 N/A
5:53 pm 17:53 Mostly Cloudy 39 3.9 27 -2.8 62 62 ESE 7 11 30.01 1016 10 16 N/A
6:53 pm 18:53 Cloudy 40 4.4 28 -2.2 63 63 S 5 7 29.98 1015 10 16 N/A
7:53 pm 19:53 Cloudy 41 5 29 -1.7 62 62 NW 7 11 29.97 1015 10 16 N/A
8:53 pm 20:53 Cloudy 40 4.4 29 -1.7 65 65 N N/A 29.92 1013 10 16 N/A
9:53 pm 21:53 Cloudy 39 3.9 30 -1.1 70 70 E 3 6 29.88 1012 10 16 N/A
10:53 pm 22:53 Cloudy 39 3.9 30 -1.1 70 70 WSW 8 13 29.86 1011 10 16 N/A
11:53 pm 23:53 Cloudy 41 5 30 -1.1 65 65 SW 13 20 29.85 1011 10 16 N/A

Powered by AerisWeather